• In Czech Republic
  • List of Countries
  • For 7 days
  • Water Temperature
  • Satellite Maps
  • Weather Map
  • Weather Widgets
  • user-avatar
    Login

    Hourly Weather Baraki Barak

    Today, 17 February, Saturday

    Time Temperature Precipitation Wind Pressure Humidity
    00:00 +1°C° 0 mm 2 mps 597 mmHg 55%
    01:00 -1°C° 0 mm 2 mps 597 mmHg 54%
    02:00 -1°C° 0 mm 3 mps 597 mmHg 53%
    03:00 -1°C° 0 mm 3 mps 597 mmHg 52%
    04:00 -2°C° 0 mm 3 mps 597 mmHg 50%
    05:00 -2°C° 0 mm 3 mps 597 mmHg 49%
    06:00 -2°C° 0 mm 3 mps 597 mmHg 47%
    07:00 -2°C° 0 mm 3 mps 597 mmHg 46%
    08:00 -2°C° 0 mm 3 mps 597 mmHg 44%
    09:00 0°C° 0 mm 3 mps 597 mmHg 41%
    10:00 +3°C° 0 mm 2 mps 597 mmHg 39%
    11:00 +5°C° 0 mm 2 mps 597 mmHg 41%
    12:00 +5°C° 0 mm 2 mps 597 mmHg 40%
    13:00 +6°C° 0 mm 2 mps 597 mmHg 39%
    14:00 +7°C° 0 mm 2 mps 596 mmHg 38%
    15:00 +7°C° 0 mm 2 mps 596 mmHg 39%
    16:00 +6°C° 0 mm 2 mps 596 mmHg 39%
    17:00 +6°C° 0 mm 2 mps 596 mmHg 41%
    18:00 +5°C° 0 mm 2 mps 596 mmHg 43%
    19:00 +3°C° 0 mm 2 mps 596 mmHg 44%
    20:00 +1°C° 0 mm 3 mps 596 mmHg 46%
    21:00 +1°C° 0 mm 3 mps 596 mmHg 46%
    22:00 0°C° 0 mm 3 mps 595 mmHg 45%
    23:00 0°C° 0 mm 3 mps 595 mmHg 45%

    Tomorrow, 18 February, Sunday

    Time Temperature Precipitation Wind Pressure Humidity
    00:00 0°C° 0 mm 3 mps 595 mmHg 44%
    01:00 -1°C° 0 mm 3 mps 595 mmHg 43%
    02:00 -1°C° 0 mm 3 mps 594 mmHg 42%
    03:00 -1°C° 0 mm 3 mps 594 mmHg 41%
    04:00 -1°C° 0 mm 3 mps 594 mmHg 40%
    05:00 -1°C° 0 mm 2 mps 594 mmHg 39%
    06:00 -1°C° 0 mm 2 mps 594 mmHg 39%
    07:00 -1°C° 0 mm 2 mps 594 mmHg 39%
    08:00 +1°C° 0 mm 2 mps 594 mmHg 38%
    09:00 +3°C° 0 mm 2 mps 595 mmHg 38%
    10:00 +4°C° 0 mm 2 mps 595 mmHg 38%
    11:00 +6°C° 0 mm 2 mps 596 mmHg 38%
    12:00 +7°C° 0 mm 2 mps 596 mmHg 40%
    13:00 +8°C° 0 mm 2 mps 596 mmHg 41%
    14:00 +9°C° 0 mm 2 mps 595 mmHg 43%
    15:00 +8°C° 0 mm 2 mps 595 mmHg 45%
    16:00 +8°C° 0 mm 2 mps 595 mmHg 47%
    17:00 +8°C° 0 mm 2 mps 595 mmHg 49%
    18:00 +7°C° 0 mm 2 mps 595 mmHg 53%
    19:00 +6°C° 0 mm 2 mps 595 mmHg 57%
    20:00 +5°C° 0 mm 2 mps 595 mmHg 61%
    21:00 +4°C° 0 mm 2 mps 595 mmHg 62%
    22:00 +4°C° 0 mm 2 mps 595 mmHg 63%
    23:00 +4°C° 0 mm 2 mps 595 mmHg 65%

    Day after tomorrow, 19 February, Monday

    Time Temperature Precipitation Wind Pressure Humidity
    00:00 +3°C° 0 mm 2 mps 595 mmHg 66%
    01:00 +3°C° 0 mm 2 mps 595 mmHg 67%
    02:00 +3°C° 0 mm 2 mps 595 mmHg 67%
    03:00 +4°C° 0 mm 1 mps 595 mmHg 68%
    04:00 +4°C° 0 mm 1 mps 594 mmHg 68%
    05:00 +3°C° 0 mm 1 mps 594 mmHg 68%
    06:00 +4°C° 0 mm 1 mps 595 mmHg 67%
    07:00 +4°C° 0 mm 1 mps 595 mmHg 67%
    08:00 +5°C° 0 mm 1 mps 596 mmHg 66%
    09:00 +6°C° 0 mm 1 mps 596 mmHg 64%
    10:00 +8°C° 0 mm 1 mps 597 mmHg 61%
    11:00 +9°C° 0 mm 1 mps 597 mmHg 59%
    12:00 +10°C° 0 mm 1 mps 597 mmHg 58%
    13:00 +10°C° 0 mm 1 mps 597 mmHg 57%
    14:00 +11°C° 0 mm 1 mps 597 mmHg 56%
    15:00 +11°C° 0 mm 1 mps 597 mmHg 55%
    16:00 +11°C° 0 mm 1 mps 597 mmHg 53%
    17:00 +11°C° 0 mm 1 mps 597 mmHg 52%
    18:00 +10°C° 0 mm 1 mps 597 mmHg 54%
    19:00 +9°C° 0 mm 1 mps 597 mmHg 57%
    20:00 +7°C° 0 mm 1 mps 597 mmHg 59%
    21:00 +7°C° 0 mm 1 mps 597 mmHg 60%
    22:00 +7°C° 0 mm 1 mps 597 mmHg 61%
    23:00 +6°C° 0 mm 1 mps 597 mmHg 61%

    20 February, Tuesday

    Time Temperature Precipitation Wind Pressure Humidity
    00:00 +6°C° 0 mm 1 mps 596 mmHg 61%
    01:00 +6°C° 0 mm 1 mps 596 mmHg 62%
    02:00 +6°C° 0 mm 1 mps 596 mmHg 62%
    03:00 +6°C° 0 mm 1 mps 596 mmHg 63%
    04:00 +5°C° 0 mm 1 mps 595 mmHg 63%
    05:00 +5°C° 0 mm 1 mps 595 mmHg 64%
    06:00 +5°C° 0 mm 1 mps 595 mmHg 63%
    07:00 +6°C° 0 mm 1 mps 596 mmHg 63%
    08:00 +6°C° 0 mm 1 mps 596 mmHg 62%
    09:00 +7°C° 0 mm 1 mps 596 mmHg 60%
    10:00 +8°C° 0 mm 2 mps 597 mmHg 58%
    11:00 +9°C° 0 mm 2 mps 598 mmHg 56%
    12:00 +9°C° 0.2 mm 2 mps 597 mmHg 57%
    13:00 +10°C° 0.2 mm 2 mps 597 mmHg 57%
    14:00 +10°C° 0.2 mm 2 mps 596 mmHg 58%
    15:00 +9°C° 0.6 mm 3 mps 596 mmHg 62%
    16:00 +8°C° 0.6 mm 3 mps 595 mmHg 66%
    17:00 +7°C° 0.6 mm 4 mps 595 mmHg 70%
    18:00 +7°C° 0.6 mm 3 mps 595 mmHg 73%
    19:00 +7°C° 0.6 mm 3 mps 595 mmHg 75%
    20:00 +6°C° 0.6 mm 2 mps 595 mmHg 78%
    21:00 +6°C° 0.3 mm 2 mps 595 mmHg 80%
    22:00 +5°C° 0.3 mm 2 mps 595 mmHg 82%
    23:00 +5°C° 0.3 mm 2 mps 595 mmHg 83%

    21 February, Wednesday

    Time Temperature Precipitation Wind Pressure Humidity
    00:00 +6°C° 0.1 mm 1 mps 595 mmHg 84%
    01:00 +5°C° 0.1 mm 1 mps 595 mmHg 85%
    02:00 +5°C° 0.1 mm 1 mps 595 mmHg 85%
    03:00 +5°C° 0.1 mm 1 mps 594 mmHg 86%
    04:00 +5°C° 0.1 mm 1 mps 594 mmHg 86%
    05:00 +4°C° 0.1 mm 1 mps 594 mmHg 86%
    06:00 +4°C° 0 mm 1 mps 595 mmHg 85%
    07:00 +5°C° 0 mm 1 mps 595 mmHg 83%
    08:00 +5°C° 0 mm 1 mps 596 mmHg 82%
    09:00 +6°C° 0 mm 1 mps 596 mmHg 78%
    10:00 +6°C° 0 mm 1 mps 596 mmHg 75%
    11:00 +7°C° 0 mm 1 mps 596 mmHg 71%
    12:00 +8°C° 0 mm 1 mps 596 mmHg 66%
    13:00 +9°C° 0 mm 1 mps 596 mmHg 62%
    14:00 +9°C° 0 mm 1 mps 596 mmHg 58%
    15:00 +9°C° 0 mm 1 mps 596 mmHg 56%
    16:00 +9°C° 0 mm 1 mps 596 mmHg 54%
    17:00 +9°C° 0 mm 1 mps 595 mmHg 53%
    18:00 +8°C° 0 mm 1 mps 596 mmHg 55%
    19:00 +7°C° 0 mm 1 mps 596 mmHg 58%
    20:00 +6°C° 0 mm 1 mps 596 mmHg 60%
    21:00 +6°C° 0 mm 1 mps 596 mmHg 61%
    22:00 +6°C° 0 mm 1 mps 596 mmHg 61%
    23:00 +5°C° 0 mm 1 mps 596 mmHg 61%

    22 February, Thursday

    Time Temperature Precipitation Wind Pressure Humidity
    00:00 +5°C° 0 mm 1 mps 596 mmHg 60%
    01:00 +5°C° 0 mm 1 mps 595 mmHg 60%
    02:00 +4°C° 0 mm 1 mps 595 mmHg 60%
    03:00 +4°C° 0 mm 1 mps 595 mmHg 60%
    04:00 +3°C° 0 mm 1 mps 594 mmHg 60%
    05:00 +3°C° 0 mm 1 mps 594 mmHg 60%
    06:00 +4°C° 0 mm 1 mps 594 mmHg 58%
    07:00 +4°C° 0 mm 1 mps 595 mmHg 57%
    08:00 +5°C° 0 mm 1 mps 595 mmHg 55%
    09:00 +6°C° 0 mm 1 mps 596 mmHg 51%
    10:00 +7°C° 0 mm 1 mps 596 mmHg 47%
    11:00 +8°C° 0 mm 1 mps 596 mmHg 43%
    12:00 +9°C° 0 mm 1 mps 596 mmHg 42%
    13:00 +9°C° 0 mm 1 mps 596 mmHg 40%
    14:00 +10°C° 0 mm 1 mps 596 mmHg 39%
    15:00 +10°C° 0 mm 1 mps 595 mmHg 40%
    16:00 +10°C° 0 mm 1 mps 595 mmHg 41%
    17:00 +10°C° 0 mm 1 mps 595 mmHg 41%
    18:00 +9°C° 0 mm 1 mps 595 mmHg 43%
    19:00 +8°C° 0 mm 1 mps 596 mmHg 45%
    20:00 +8°C° 0 mm 1 mps 596 mmHg 47%
    21:00 +8°C° 0 mm 1 mps 596 mmHg 49%
    22:00 +7°C° 0 mm 1 mps 596 mmHg 50%
    23:00 +6°C° 0 mm 2 mps 596 mmHg 52%
    Show more